Location: Arboyeti
(42.1122°N, 44.6017°E)
Time: 05:02:06
(UTC+00:00)

Meteor 2-8 Rocket - Pass Details

Date: 19 April 2021
Orbit: 936 x 959 km, 82.5° (Epoch: 09 May)

Event Time Altitude Azimuth Distance (km) Brightness Sun altitude
Exits shadow 18:30:31 68° 139° (SE) 1,027 4.3 -26.3°
Maximum altitude 18:31:08 74° 95° (E) 996 4.3 -26.4°
Drops below altitude 10° 18:37:15 10° 12° (NNE) 2,684 7.2 -27.1°
Sets 18:39:45 0° 11° (N) 3,630 8.0 -27.4°
